Flag for Reunion (French) Weather past 2 weeks in Saint-Denis, Reunion (French)

Now
88 °F

Partly sunny.


Feels Like: 102 °F
Forecast: 77 / 82 °F
Wind: 20 mph from East

Location: Saint-Denis / Gillot

Current Time: Mar 4, 2015 at 3:33:39 PM

Latest Report: Mar 4, 2015 at 2:30 PM


Visibility: N/A

Pressure: 29.89 "Hg

Humidity: 75%

Dew point: 79 °F

Location of Saint-DenisLocation

Historic Weather in Saint-Denis — Graph

°F

Saint-Denis temperature yesterday

Maximum temperature yesterday: 88 °F (at 9:00 AM)
Minimum temperature yesterday: 77 °F (at 12:30 AM)
Average temperature yesterday: 83 °F

Past Weeks' High & Low Weather Summary

 TemperatureHumidityPressure
High90 °F (Mar 4, 12:30 PM)100% (Feb 20, 8:00 AM)29.98 "Hg (Feb 20, 8:00 AM)
Low72 °F (Feb 18, 2:00 AM)55% (Feb 18, 8:30 AM)29.71 "Hg (Feb 27, 3:00 PM)
Average80 °F76%29.84 "Hg
* Reported Feb 17 2:00 PM — Mar 4 2:00 PM, Saint-Denis, Weather by CustomWeather, © 2015

Note: Actual official high and low records may vary slightly from our data, if they occured in-between our weather recording intervals... More about our weather records

Advertising

Saint-Denis weather history for previous 24 hours

 ConditionsComfort  
Time TempWeatherWind HumidityBarometerVisibility
2:00 PM
Wed, Mar 4
88 °FPartly sunny.20 mph75%29.86 "HgN/A
1:30 PM88 °FPartly sunny.20 mph75%29.86 "HgN/A
1:00 PM88 °FPartly sunny.17 mph75%29.89 "HgN/A
12:30 PM90 °FPartly sunny.16 mph67%29.89 "HgN/A
12:00 PM88 °FBroken clouds.14 mph70%29.89 "HgN/A
11:30 AM86 °FBroken clouds.13 mph75%29.89 "HgN/A
11:00 AM86 °FBroken clouds.15 mph75%29.92 "HgN/A
10:30 AM84 °FBroken clouds.14 mph74%29.92 "HgN/A
10:00 AM84 °FBroken clouds.15 mph74%29.92 "HgN/A
9:30 AM82 °FBroken clouds.9 mph79%29.92 "HgN/A
9:00 AM79 °FBroken clouds.No wind84%29.92 "HgN/A
8:30 AM79 °FThunderstorms. Broken clouds.7 mph84%29.92 "HgN/A
8:00 AM77 °FThunderstorms. Broken clouds.9 mph89%29.92 "HgN/A
7:30 AM77 °FThunderstorms. Broken clouds.10 mph89%29.92 "HgN/A
7:00 AM75 °FThunderstorms. Broken clouds.9 mph89%29.89 "HgN/A
6:30 AM75 °FThunderstorms. Broken clouds.7 mph89%29.89 "Hg3 mi
6:00 AM75 °FRain showers. Broken clouds.15 mph89%29.89 "Hg3 mi
5:30 AM75 °FRain. Broken clouds.5 mph94%29.89 "Hg4 mi
5:00 AM75 °FLight rain. Passing clouds.3 mph89%29.86 "Hg4 mi
4:30 AM75 °FHeavy rain. Fog.10 mph94%29.89 "Hg1 mi
4:00 AM77 °FLight rain. Fog.26 mph94%29.86 "Hg1 mi
3:30 AM77 °FPassing clouds.6 mph89%29.83 "HgN/A
3:00 AM77 °FLight rain. Mostly cloudy.13 mph89%29.83 "HgN/A
2:30 AM77 °FRain. Passing clouds.17 mph89%29.86 "HgN/A
2:00 AM77 °FPassing clouds.5 mph94%29.86 "HgN/A
1:30 AM77 °FLight rain. Partly cloudy.6 mph94%29.86 "HgN/A
1:00 AM79 °FLight rain. Partly cloudy.6 mph94%29.89 "Hg5 mi
12:30 AM81 °FHeavy rain. Fog.20 mph89%29.89 "Hg1 mi
11:30 PM
Tue, Mar 3
81 °FWarm.12 mph89%29.89 "HgN/A
11:00 PM81 °FPassing clouds.12 mph84%29.89 "HgN/A
10:30 PM81 °FPassing clouds.13 mph84%29.89 "HgN/A
10:00 PM81 °FClear.10 mph84%29.89 "HgN/A
9:30 PM81 °FPassing clouds.10 mph79%29.89 "HgN/A
9:00 PM81 °FPassing clouds.8 mph74%29.86 "HgN/A
8:30 PM79 °FPassing clouds.No wind84%29.86 "HgN/A
8:00 PM81 °FClear.6 mph84%29.86 "HgN/A
7:30 PM81 °FClear.No wind79%29.83 "HgN/A
7:00 PM82 °FPassing clouds.6 mph74%29.83 "HgN/A
6:30 PM82 °FPartly cloudy.7 mph74%29.83 "HgN/A
6:00 PM82 °FPartly cloudy.No wind79%29.83 "HgN/A
5:30 PM84 °FBroken clouds.6 mph79%29.80 "HgN/A
5:00 PM86 °FScattered clouds.6 mph75%29.80 "HgN/A
4:30 PM88 °FScattered clouds.No wind75%29.80 "HgN/A
4:00 PM88 °FPassing clouds.5 mph70%29.80 "HgN/A
3:30 PM88 °FPassing clouds.6 mph70%29.83 "HgN/A
3:00 PM88 °FPassing clouds.5 mph75%29.83 "HgN/A
Weather by CustomWeather, © 2015

See weather overviewHow to use our weather pages